Theta_e
343 342 344 344 345 345 346 346 346 347 346 346 347 348 347 347 348 348 349 351 349 347 348 346 347 349 349 349 348 348 349 347 343 340 339 340 341 341 342 344 347 348 348 346 344 343 342 342 343 344 345 345 345 345 347 348 349 349 348 348 347 347 347 347 346 346 346 346 345 342 343 345 344 345 345 344 344 343 342 343 344 341 337 335 338
342 343 343 344 345 345 345 345 346 346 344 346 347 347 346 346 348 348 348 349 347 347 347 344 346 347 348 348 348 348 348 346 345 344 343 340 340 342 342 343 345 347 348 347 345 343 341 341 342 344 346 347 347 345 346 348 348 348 348 348 347 347 347 347 346 345 346 344 344 342 342 343 343 343 343 343 344 344 343 343 343 341 339 339 338
342 342 343 343 344 345 345 345 346 344 343 346 347 347 346 346 347 346 346 347 346 346 346 342 344 346 347 348 348 348 347 347 347 348 349 345 341 343 342 342 344 345 346 347 346 344 342 342 343 344 346 347 347 345 344 346 348 349 349 348 348 347 347 346 345 345 345 343 343 343 343 343 343 343 343 342 342 342 343 343 343 341 341 341 338
342 342 342 342 343 343 344 345 345 343 343 346 347 346 346 345 346 345 344 345 344 344 344 342 344 346 347 348 348 348 348 349 349 350 351 348 343 342 343 342 343 343 344 344 345 345 344 344 344 345 347 346 345 344 343 343 345 347 348 348 347 347 346 345 345 344 343 342 343 343 343 343 343 343 342 342 341 342 342 342 343 342 342 341 338
342 342 342 342 342 343 344 344 344 343 343 345 346 346 346 345 345 344 342 343 342 342 344 343 344 348 348 348 349 349 349 350 351 350 351 348 344 343 343 343 343 344 345 344 344 345 345 344 345 345 346 345 343 343 342 341 341 343 346 348 348 347 347 346 346 346 344 343 343 343 344 344 344 344 343 343 342 342 341 341 342 341 342 342 339
341 341 342 342 342 343 343 343 344 343 344 345 346 345 346 345 345 346 343 341 340 341 343 344 345 348 349 349 350 350 350 351 351 349 349 346 343 343 344 343 343 344 345 345 345 345 344 344 345 345 344 343 341 340 341 342 341 341 345 348 348 348 347 347 346 346 346 345 345 345 345 345 345 344 343 343 343 343 341 341 341 341 341 341 339
342 340 342 342 342 342 342 342 344 343 344 344 345 345 346 345 345 346 345 341 339 340 343 345 346 348 350 349 350 350 349 350 351 350 349 347 344 344 344 342 343 344 344 345 344 345 344 344 345 344 343 342 342 341 341 342 342 344 346 347 348 348 348 348 346 345 345 345 346 346 346 346 346 345 344 343 341 340 340 341 341 341 341 341 341
344 341 341 342 341 342 342 342 343 343 344 344 344 345 345 346 345 345 345 342 339 339 342 345 346 349 350 350 350 350 348 350 352 351 351 349 345 344 344 343 343 344 344 345 345 345 344 344 345 344 344 344 344 343 342 342 344 345 345 346 348 349 349 348 346 344 344 345 347 347 346 346 346 346 344 343 342 340 340 340 342 341 339 341 342
348 344 342 342 341 342 342 342 342 343 344 344 344 344 344 344 344 344 345 342 339 339 341 344 347 349 351 350 351 351 349 350 352 353 352 349 345 344 344 343 344 345 345 346 345 345 345 345 345 344 344 345 346 346 346 346 346 345 344 346 348 349 349 348 346 344 343 346 347 347 347 346 347 346 344 344 344 343 342 340 341 341 339 341 343
348 347 345 343 341 343 342 342 343 342 343 344 344 344 343 343 344 345 345 342 340 339 340 343 347 350 351 350 350 350 350 351 352 352 351 349 346 345 344 343 345 345 345 347 346 345 346 346 346 345 344 346 348 349 348 348 348 347 346 346 348 349 348 348 347 345 345 346 347 347 348 347 346 345 343 345 345 344 345 343 341 340 339 341 343
349 349 348 346 342 342 343 342 342 343 343 344 343 343 344 343 344 346 345 341 340 339 340 342 346 350 351 350 350 350 351 351 352 351 351 349 348 347 346 344 345 345 345 347 346 345 345 346 346 346 345 345 347 348 348 348 349 350 348 345 346 347 348 348 347 346 346 346 347 347 347 346 346 345 344 346 346 344 345 344 343 341 339 341 344
349 349 349 348 344 342 343 343 343 344 343 343 343 343 343 343 342 345 345 342 340 340 340 341 344 347 349 350 350 350 351 351 351 350 350 350 350 350 349 346 345 346 346 346 346 345 345 345 345 346 347 345 345 349 351 351 350 349 347 344 343 345 346 347 347 346 346 346 347 347 346 346 346 346 346 347 346 345 344 345 345 343 341 341 344
350 350 349 348 347 343 343 344 343 344 343 343 344 343 344 343 342 344 345 342 340 340 341 341 342 344 347 350 350 350 351 351 351 350 349 350 350 350 350 347 345 347 347 345 345 346 345 345 344 345 347 346 346 350 351 351 349 346 344 343 342 343 345 346 347 347 347 347 347 346 346 346 346 346 347 347 346 344 344 345 345 344 342 341 343
351 350 349 348 347 345 344 344 343 344 344 343 343 344 344 344 343 344 345 342 340 340 341 341 341 342 346 350 351 350 351 350 350 350 350 350 350 350 350 347 344 345 346 344 344 345 345 344 344 344 345 346 347 350 351 350 347 344 343 343 342 342 342 344 345 346 348 348 346 345 345 347 346 347 348 348 346 345 345 345 344 344 342 340 341
353 351 350 348 348 347 345 344 344 344 344 344 344 345 345 345 345 344 345 343 339 339 340 339 339 341 346 351 351 350 351 350 350 350 349 349 349 349 350 348 345 343 344 344 343 344 344 344 344 343 345 346 347 348 350 350 349 347 346 344 343 342 342 342 343 345 347 348 345 344 347 348 348 348 348 348 347 347 347 346 344 344 343 342 342
354 352 351 349 348 348 346 346 345 344 344 345 345 345 345 345 345 344 345 343 339 336 337 336 336 340 346 350 351 351 351 349 349 350 349 348 348 349 348 347 346 344 345 346 345 344 344 344 343 344 345 345 347 347 348 349 349 349 348 345 344 343 341 342 343 343 345 346 345 345 348 349 349 349 349 349 348 348 347 346 345 345 344 344 343
355 355 353 351 350 348 347 347 346 345 345 346 346 346 346 346 345 345 345 344 340 335 335 335 334 338 343 347 349 350 350 348 348 349 348 348 347 347 346 344 344 345 345 346 347 345 345 345 343 344 345 344 345 345 346 348 349 348 348 346 345 344 343 342 343 343 344 345 345 346 348 349 349 350 349 349 349 349 348 347 347 346 346 345 344
356 356 354 353 351 349 348 348 347 346 346 346 347 347 347 346 346 346 346 345 342 336 334 334 333 334 339 344 345 346 347 347 346 346 346 347 347 345 344 343 342 343 344 346 348 348 348 348 346 345 345 344 344 344 344 346 346 345 346 346 346 346 345 343 343 344 345 346 346 346 348 350 350 350 350 349 350 350 349 348 348 348 347 346 346
355 355 354 354 351 350 349 349 349 348 347 347 349 349 348 348 347 346 346 346 344 339 335 335 333 332 334 338 341 341 343 344 344 343 343 345 345 344 342 342 342 343 345 347 348 349 350 350 349 349 347 344 344 344 342 344 343 342 344 345 345 346 345 344 344 344 346 348 348 348 348 349 350 350 350 350 350 350 350 350 350 349 348 347 346
355 354 354 354 353 352 351 351 351 349 348 347 349 351 350 349 349 348 347 347 347 343 336 335 335 334 333 334 337 339 339 341 342 341 340 340 341 342 340 341 342 342 345 347 348 348 349 349 350 350 347 343 344 343 342 343 343 342 343 343 343 345 345 344 344 345 346 348 349 349 349 349 349 350 350 350 350 350 350 351 350 349 347 346 346
355 355 355 354 353 353 352 352 351 350 349 347 347 350 350 349 349 347 347 348 348 347 341 336 335 336 335 334 334 334 335 337 338 338 338 337 338 339 340 340 341 342 344 346 347 348 348 347 348 348 347 343 342 343 342 342 343 342 343 343 343 344 344 345 345 345 346 346 348 349 350 350 349 348 349 349 350 349 349 350 350 348 346 346 347
353 354 354 354 353 353 353 352 352 350 350 348 347 349 351 351 350 348 348 347 348 348 345 339 336 336 337 336 335 334 332 332 334 335 335 335 335 336 338 339 341 342 344 345 346 347 348 348 347 346 345 343 342 342 342 342 343 342 342 343 344 343 343 344 344 343 344 344 345 348 350 350 350 350 349 348 349 350 350 350 350 350 350 350 350
352 354 354 354 354 354 353 353 352 351 350 349 348 350 351 352 352 351 350 348 349 350 347 342 338 337 338 338 338 338 336 334 333 333 333 333 333 334 335 337 340 342 345 346 346 346 347 348 348 346 344 343 341 341 341 341 342 342 342 343 344 344 344 344 342 342 343 342 343 346 348 348 349 350 350 347 348 350 351 351 351 351 352 353 352
350 353 353 352 353 354 354 353 352 352 351 352 351 351 352 351 352 353 352 350 350 351 350 346 342 341 344 345 344 342 342 340 338 335 333 333 333 334 336 337 339 342 344 345 346 347 347 348 348 346 345 344 341 339 340 340 340 340 341 342 343 343 343 343 344 344 344 344 343 343 345 347 348 348 347 345 346 348 350 352 353 353 352 351 351
348 350 351 350 349 350 351 351 351 352 352 354 354 353 352 351 351 354 354 353 351 351 352 351 347 348 351 352 350 347 345 345 344 342 339 337 336 336 339 341 342 343 344 346 347 348 348 347 345 344 343 344 342 340 339 338 337 338 339 339 340 340 340 340 341 344 346 346 346 344 343 344 345 346 345 344 345 345 348 352 353 353 352 351 350
345 348 350 349 348 349 350 350 351 351 352 353 354 353 353 352 351 352 354 355 353 352 352 353 352 352 352 351 351 351 349 347 345 343 341 341 341 341 342 344 345 345 345 346 348 349 349 347 344 342 341 341 342 341 340 338 337 337 337 337 338 338 338 338 338 339 342 345 347 345 343 342 342 342 342 342 342 342 345 349 351 352 352 351 350
342 345 347 348 348 348 350 350 350 351 351 352 353 352 352 352 351 351 353 355 354 354 354 355 354 353 352 349 351 354 353 349 346 344 341 340 343 345 346 347 347 347 346 345 347 348 349 349 347 344 341 340 341 341 340 340 339 339 339 337 336 336 336 336 335 336 337 339 341 342 341 340 339 339 339 338 339 340 343 346 348 349 349 350 350
339 341 343 345 345 345 347 348 349 350 351 351 351 351 352 352 351 350 350 352 353 353 354 355 355 354 353 352 353 354 354 352 352 351 347 341 340 344 349 350 349 348 348 346 346 346 347 348 348 347 344 343 342 341 341 340 340 340 340 339 337 336 335 334 335 335 335 335 336 336 336 336 337 336 336 336 337 338 341 342 344 346 346 346 347
336 338 339 340 341 342 344 345 345 347 349 350 351 352 353 353 351 350 350 351 351 352 352 353 354 355 354 354 354 354 354 354 354 354 352 349 345 343 349 352 351 350 349 348 347 346 346 346 347 347 347 346 344 343 342 341 340 340 340 339 337 336 335 334 334 334 334 334 334 333 333 333 333 334 334 335 335 336 338 339 338 340 341 342 343
334 335 336 337 339 341 341 342 343 344 345 347 349 350 350 352 353 353 352 353 353 353 353 353 354 354 355 355 355 354 353 353 354 354 352 352 351 348 349 351 351 350 349 348 348 347 347 346 345 345 346 345 345 345 343 342 341 340 339 337 336 334 334 334 334 333 333 333 333 333 333 333 334 335 334 334 334 334 338 340 339 340 341 342 342
332 333 334 334 336 339 341 340 341 342 342 343 345 346 347 350 352 353 353 353 354 354 354 353 353 353 353 354 354 353 353 352 353 353 351 351 351 351 351 352 351 349 348 347 347 347 347 347 346 345 344 344 343 344 343 342 342 341 340 339 337 335 333 332 332 332 331 331 330 330 331 331 333 333 333 333 334 334 335 338 341 343 343 344 344
330 331 332 332 332 335 338 339 339 340 341 341 343 345 346 348 349 350 352 353 353 353 352 352 352 352 351 352 352 351 352 352 351 352 351 350 350 351 351 352 352 350 348 346 346 346 346 347 348 346 344 343 343 342 342 342 342 341 341 342 341 340 338 336 333 331 330 330 329 329 329 329 329 329 330 332 334 336 337 339 341 343 344 345 345
329 328 330 331 330 330 333 337 338 339 340 341 340 340 341 343 346 347 348 351 352 352 353 353 352 352 352 352 352 351 351 351 351 351 350 350 350 350 351 351 351 350 349 347 345 345 345 346 347 347 345 344 344 343 342 342 341 342 342 343 343 342 342 341 338 335 333 331 330 330 329 328 327 328 329 331 333 335 338 342 344 344 344 343 342
327 326 326 328 329 327 327 332 337 339 339 338 337 333 331 334 341 345 345 347 349 350 352 353 353 353 353 353 353 353 352 352 352 351 351 351 351 351 351 351 350 350 349 348 346 345 344 345 347 348 347 345 344 344 344 343 342 342 343 344 344 344 344 344 343 342 340 337 335 334 333 332 330 328 328 329 331 332 335 339 342 343 343 342 342
325 325 325 325 326 326 325 327 331 336 337 336 333 330 325 324 330 335 339 342 344 345 347 349 349 351 352 354 354 354 353 352 352 352 352 352 352 352 352 352 351 350 349 349 348 346 344 345 347 348 347 346 345 345 344 344 344 344 344 345 345 345 345 345 345 345 345 344 342 341 340 338 336 335 332 330 329 330 332 335 338 339 339 340 341
323 323 323 323 323 325 326 325 325 329 334 335 333 329 323 320 320 322 326 331 334 337 339 341 344 347 348 350 351 352 352 352 352 352 351 352 352 353 353 352 352 351 351 349 348 347 345 344 345 347 348 347 347 346 345 344 344 345 346 346 346 346 347 347 347 346 346 346 345 345 344 342 341 340 339 338 335 333 332 333 334 335 335 336 335
322 321 321 321 321 323 326 326 325 325 327 329 329 325 321 319 318 317 318 321 323 326 329 331 336 342 344 346 347 348 350 351 352 352 352 352 352 353 353 352 352 352 351 349 347 347 346 345 345 346 347 348 348 348 346 345 345 345 345 346 346 347 347 347 348 348 347 347 347 346 346 345 344 342 342 342 342 340 339 337 337 337 337 337 336
321 321 320 320 320 322 324 325 324 324 324 324 322 320 318 318 318 316 315 316 318 321 322 324 326 330 334 337 340 342 344 346 347 349 350 351 351 352 352 352 352 352 351 350 349 347 347 347 346 345 346 347 348 349 349 348 347 346 347 348 348 348 348 348 348 348 348 348 348 347 347 346 345 344 343 342 343 343 343 342 342 342 340 340 340
321 321 320 319 319 320 321 322 322 323 323 323 321 318 315 316 318 317 314 314 316 319 322 322 321 322 325 327 329 332 333 335 336 338 342 345 349 350 351 351 352 352 352 352 351 350 349 349 348 347 346 345 346 347 348 349 349 349 349 349 349 349 348 348 347 348 348 348 348 348 348 347 346 345 344 344 343 343 343 343 344 343 343 344 345
320 320 320 320 319 319 319 320 321 321 322 321 320 317 314 315 318 317 315 314 316 319 320 319 318 318 321 324 325 327 330 331 331 331 333 336 339 344 347 348 350 351 351 352 353 353 352 351 351 350 348 347 346 346 346 347 348 348 349 349 349 349 349 348 348 348 348 348 347 347 347 347 348 348 347 345 344 343 343 344 344 343 345 347 348
320 320 320 320 319 319 318 318 319 320 320 320 318 315 313 315 318 319 316 314 315 317 319 320 319 317 317 319 320 322 326 329 329 328 328 330 332 334 338 343 346 348 350 351 351 352 353 352 352 352 351 351 350 348 348 348 348 348 348 348 348 348 348 349 350 351 351 350 349 347 347 347 349 350 350 348 346 345 343 344 344 345 346 348 349
320 319 319 319 318 318 317 317 318 318 318 318 317 314 313 313 315 318 317 313 312 315 317 319 321 319 316 314 314 316 319 323 325 323 322 327 331 331 332 336 340 343 346 348 349 350 351 352 352 353 353 353 352 352 352 351 350 350 350 349 349 349 349 350 351 351 350 349 349 349 349 350 351 351 350 350 348 347 346 345 344 345 347 349 350
319 319 319 318 317 317 316 315 316 318 318 318 316 315 315 314 313 316 316 313 312 314 315 316 317 317 315 312 312 313 314 317 321 319 318 325 331 331 333 336 337 337 338 341 344 346 347 349 350 351 352 352 352 353 353 353 353 352 351 349 348 348 349 349 349 348 348 348 349 350 352 353 353 352 351 350 349 349 348 347 347 347 350 352 353
318 319 318 317 316 315 314 313 314 316 318 317 316 316 317 317 315 314 313 311 311 313 314 314 313 313 312 311 311 312 311 314 317 317 320 329 334 335 336 338 338 337 335 336 340 343 345 347 348 349 351 351 352 352 353 353 353 353 352 351 350 349 349 349 349 349 349 350 350 351 352 353 353 352 350 350 350 349 349 349 350 352 353 354 354
318 318 317 316 315 313 312 312 312 313 315 315 314 314 316 317 316 314 312 311 310 311 311 311 310 310 310 310 310 311 312 316 320 322 327 335 338 338 337 337 339 341 338 335 337 341 344 346 347 348 349 349 349 350 352 352 352 353 353 352 352 351 351 351 351 351 350 350 350 350 351 351 351 351 350 350 351 350 349 350 352 354 354 355 355
317 316 316 315 314 313 312 311 311 311 312 312 312 312 313 314 314 313 312 310 310 309 309 308 308 309 309 310 311 311 312 317 323 329 333 335 335 335 335 335 338 341 340 338 339 340 341 343 343 344 346 347 348 348 348 350 350 350 351 353 353 354 353 352 351 352 352 352 351 351 351 350 350 351 351 352 352 351 351 352 353 354 355 355 354
316 315 315 314 314 313 312 311 310 311 312 312 312 313 313 313 312 312 311 310 309 309 308 308 308 308 308 309 311 312 313 315 320 329 334 334 333 332 333 335 338 339 339 339 339 338 338 337 334 333 336 340 342 344 346 346 343 339 341 344 345 348 352 354 353 353 352 352 352 351 351 352 353 353 354 354 354 354 354 354 354 354 355 355 355
315 314 314 314 313 313 312 312 313 314 315 314 314 315 315 315 314 313 312 311 310 309 308 308 308 307 308 309 311 313 315 316 318 323 329 332 332 331 331 334 335 335 335 335 336 335 334 329 324 323 326 329 331 333 337 337 331 327 328 330 328 331 339 347 351 353 353 353 352 351 351 352 352 353 353 354 355 355 354 354 354 354 354 355 354
314 314 313 313 313 312 312 313 314 315 315 315 316 316 316 316 315 314 313 312 312 311 309 309 308 308 308 309 309 311 314 317 319 320 324 328 330 330 330 331 331 330 329 328 329 329 327 323 322 324 326 324 322 324 327 327 325 324 325 325 324 324 327 332 336 340 344 346 348 350 351 352 353 353 353 354 354 355 355 355 354 354 354 354 354
313 313 312 312 312 312 312 313 315 315 314 315 314 314 314 314 314 314 313 313 313 313 312 311 311 310 310 309 309 309 310 313 316 317 318 320 323 325 326 327 327 325 323 322 324 327 328 329 329 328 325 321 320 322 322 322 323 325 325 326 326 326 325 325 326 327 329 331 334 337 341 344 347 350 353 355 355 355 355 355 355 355 355 354 352
312 312 311 311 311 312 312 313 314 313 313 313 313 313 313 314 314 314 314 314 314 314 314 314 313 313 312 311 311 310 309 309 310 311 312 314 317 318 318 320 322 324 322 321 322 325 330 332 330 325 321 320 321 321 320 321 324 326 325 324 325 325 325 325 325 325 325 325 325 326 327 329 333 338 345 351 354 355 355 354 354 352 348 343 340
Wind_Speed
31 30 31 32 31 31 29 25 24 26 24 23 25 24 18 17 18 19 18 17 18 18 17 17 20 19 17 14 11 10 8 6 6 8 10 10 10 9 9 11 12 12 12 13 14 13 13 14 14 12 11 10 9 10 11 11 11 10 10 9 9 9 8 7 7 6 8 8 4 4 6 7 7 8 8 8 6 5 3 2 1 3 6 6 7
32 32 31 32 32 31 28 27 29 27 24 25 28 24 19 17 18 19 19 19 19 18 17 18 20 20 18 16 12 10 9 7 6 6 7 8 9 9 9 10 11 11 10 11 11 11 12 12 11 10 9 9 8 10 12 12 11 11 11 10 9 9 7 7 6 6 9 8 4 4 6 6 7 7 8 9 9 9 7 4 2 1 6 7 8
35 33 31 31 32 31 29 30 30 26 24 27 28 25 20 19 19 20 20 20 20 19 17 17 20 19 18 18 15 12 10 8 7 6 6 7 8 8 9 10 10 9 9 9 10 9 9 10 9 9 9 9 9 10 11 11 11 11 11 11 9 9 9 8 8 8 9 8 6 5 4 4 5 6 7 8 8 9 9 5 3 3 5 7 8
37 33 32 32 31 32 32 33 31 26 26 28 28 25 21 22 21 21 21 20 21 20 18 18 20 20 19 18 15 13 12 10 9 8 8 8 9 9 9 10 9 9 8 8 9 8 9 9 9 10 9 8 9 9 10 11 11 11 11 11 10 8 8 7 7 8 9 9 7 5 4 4 5 4 5 6 6 8 9 6 3 4 3 4 6
37 33 34 34 33 34 33 33 31 28 28 28 28 25 22 23 21 20 20 19 20 20 19 20 21 20 20 19 17 15 14 13 11 11 10 10 10 10 10 9 9 8 8 8 8 8 10 10 10 10 9 8 9 9 10 10 11 11 11 11 10 8 7 7 7 7 8 8 6 5 4 5 4 4 6 6 5 6 8 6 4 5 4 1 3
34 33 34 36 35 35 34 33 32 30 29 28 27 25 23 22 22 21 19 19 20 20 21 22 21 21 22 21 19 17 17 16 14 12 11 10 11 11 10 10 10 10 10 10 9 9 10 10 10 10 10 9 9 10 10 10 10 11 12 12 10 9 8 7 7 7 8 8 7 6 5 4 2 3 5 5 5 6 7 7 6 6 4 1 1
29 31 33 38 37 36 35 33 32 31 30 28 26 25 24 23 23 22 20 19 21 22 23 23 21 22 22 20 19 18 18 17 15 13 11 11 11 11 11 11 11 11 10 10 10 10 10 10 10 10 11 10 10 10 11 11 11 10 12 13 12 11 9 8 8 8 9 9 7 6 5 4 1 2 2 3 3 4 6 8 8 7 4 1 1
26 28 29 37 39 37 36 33 32 32 30 29 27 26 26 24 24 23 21 21 22 23 25 24 23 22 21 19 19 18 18 16 14 13 11 11 12 12 12 13 12 12 12 11 10 10 10 10 10 10 11 10 10 10 11 12 11 10 12 13 13 12 10 10 10 10 11 10 7 5 5 4 2 2 1 0 1 2 5 10 10 8 5 1 1
24 25 26 35 40 37 36 33 32 31 30 30 28 26 26 25 25 24 21 22 23 24 26 25 24 23 21 20 19 17 17 16 14 13 13 12 13 13 13 14 14 13 13 12 11 11 11 11 11 11 11 11 11 11 12 12 11 10 11 13 13 13 12 12 11 12 12 10 8 6 5 5 2 3 2 1 1 2 2 8 12 10 7 4 3
24 24 23 30 39 37 36 35 32 32 30 29 29 27 26 26 26 24 22 22 24 25 27 26 25 24 22 21 20 18 17 17 16 14 14 13 14 14 13 14 14 14 13 12 12 12 11 11 12 11 11 12 12 13 13 12 10 9 10 12 13 13 14 13 11 12 13 12 10 7 5 5 2 3 3 2 1 1 2 3 10 12 10 4 3
28 26 21 24 35 37 35 36 34 33 31 30 29 27 25 26 27 26 23 22 24 26 27 27 27 26 24 23 22 19 18 18 17 16 15 15 15 14 13 14 15 14 13 13 12 12 11 11 11 12 13 13 13 13 13 11 10 9 9 12 14 14 15 14 11 12 13 13 12 9 7 6 3 2 2 3 3 3 2 1 5 10 12 7 3
30 30 24 21 30 36 34 36 36 35 34 32 30 27 25 25 27 27 24 23 25 27 28 28 28 28 26 25 24 21 19 19 19 19 17 16 15 14 13 14 16 14 14 14 12 12 12 12 12 12 13 13 13 13 12 12 11 11 10 11 12 13 16 15 12 12 13 14 13 10 9 8 5 2 2 3 4 6 5 1 1 5 9 8 5
31 31 29 22 26 34 35 35 36 36 35 33 31 28 25 25 26 26 25 25 26 27 29 28 28 29 27 25 24 22 20 20 20 19 18 16 15 15 14 15 16 15 15 14 13 12 13 13 13 13 13 12 13 13 12 12 11 11 11 10 10 12 15 16 14 13 13 13 13 12 11 9 7 5 3 3 3 5 6 4 3 3 6 7 6
33 32 32 27 26 31 35 35 36 37 35 34 32 28 26 25 26 26 25 25 26 27 29 28 27 28 27 25 24 23 22 21 21 19 18 17 16 15 15 16 16 14 14 13 12 13 13 13 13 13 12 12 13 13 12 11 11 11 11 11 11 11 14 15 14 14 13 12 12 12 11 10 8 6 4 4 4 4 5 5 5 4 6 7 6
34 33 34 31 28 30 34 35 35 36 36 34 33 29 27 26 26 26 25 26 27 28 28 28 27 27 28 26 24 24 23 21 21 20 19 18 17 16 15 15 15 13 13 12 12 13 13 13 13 13 13 13 13 12 12 11 10 10 10 11 11 11 13 14 14 14 14 12 12 13 12 11 9 7 6 6 6 6 6 6 7 6 6 7 7
32 32 33 33 31 30 33 36 34 35 36 36 34 31 28 27 25 25 25 25 27 28 28 28 27 27 28 28 25 25 24 22 21 22 20 18 17 17 16 15 14 13 13 14 13 13 14 14 13 12 13 13 12 12 11 11 11 10 10 10 10 11 12 12 13 14 15 13 13 14 14 11 9 8 8 8 8 9 8 8 8 8 8 8 8
30 31 32 33 34 33 34 36 35 35 36 36 36 34 31 28 26 25 25 24 26 27 28 27 27 27 28 28 27 26 25 24 22 22 22 19 17 17 16 16 15 13 14 15 14 13 13 14 13 12 12 12 12 12 11 12 12 11 10 10 10 11 11 12 13 14 14 14 14 15 15 13 10 10 10 10 10 10 10 10 10 10 11 11 10
28 31 32 33 35 36 36 36 35 35 35 33 31 33 34 30 27 27 25 25 26 27 28 28 27 28 29 29 29 27 26 25 22 21 21 20 19 18 17 17 16 14 14 14 14 13 13 13 12 11 11 12 12 12 11 12 12 11 10 10 11 11 11 12 13 13 13 14 15 16 16 14 12 11 12 12 11 11 12 12 12 13 13 13 13
26 29 31 31 33 35 34 33 32 33 34 29 20 23 33 34 30 29 26 23 24 27 29 28 27 28 29 30 29 28 27 26 24 21 20 20 20 19 19 18 16 16 15 14 14 14 14 14 13 11 12 13 13 13 12 12 12 11 10 11 11 12 12 12 13 14 14 14 15 15 15 15 14 14 13 13 13 13 13 13 14 15 15 15 14
20 24 25 26 28 30 29 28 28 29 31 30 21 18 28 36 35 34 32 26 24 26 28 29 28 28 28 29 29 28 27 26 25 23 21 20 20 20 19 18 18 18 17 16 16 16 16 15 14 14 14 14 14 14 12 12 12 12 11 11 11 12 12 11 12 14 15 15 14 14 13 14 15 16 16 15 15 14 14 14 14 14 15 15 14
10 14 16 18 21 25 26 26 27 28 30 34 31 24 26 35 38 36 34 31 28 27 28 29 28 27 27 28 28 28 28 27 26 25 23 21 20 20 20 19 19 19 19 18 18 17 17 16 15 15 15 15 16 15 14 13 13 13 13 12 11 12 12 11 12 13 14 14 14 14 13 12 13 15 16 17 15 15 15 14 13 12 11 12 13
9 8 11 14 18 23 24 22 24 28 31 35 35 28 25 31 37 37 35 32 29 27 27 28 28 27 27 27 27 27 27 28 27 26 25 23 21 20 20 19 19 20 20 19 18 18 18 17 16 15 16 16 16 16 15 15 14 14 14 13 13 12 12 12 12 13 13 13 13 14 14 13 12 14 16 16 15 14 15 15 12 9 8 9 10
10 9 10 12 14 16 17 17 20 24 27 31 33 29 25 27 32 36 37 33 29 27 26 27 29 29 28 27 26 26 26 26 27 27 26 24 23 21 20 21 21 21 21 20 19 19 19 18 17 17 16 16 16 16 15 16 15 15 15 14 14 14 13 13 13 13 12 12 13 13 14 13 13 15 15 15 14 14 14 15 12 9 8 9 9
11 10 11 12 13 13 12 15 20 23 23 24 26 27 27 28 30 33 36 34 30 30 29 28 28 29 27 26 26 25 24 24 24 25 26 25 24 23 21 22 22 21 22 21 20 20 20 20 20 18 17 17 18 17 16 16 16 15 15 15 15 15 15 14 13 13 12 11 12 13 13 14 14 15 15 14 14 13 13 14 14 11 11 11 11
14 11 12 15 17 16 14 15 20 23 23 20 20 24 27 29 29 29 32 34 33 33 31 30 29 29 27 26 26 26 25 24 24 23 24 24 24 24 22 22 22 22 22 22 21 21 21 21 21 20 19 18 19 19 18 17 17 16 16 16 17 17 16 16 15 14 12 11 12 13 13 14 14 15 15 14 14 14 13 13 15 14 14 13 12
17 14 12 14 18 16 13 13 16 19 22 22 20 21 23 26 27 27 30 34 35 35 34 33 31 30 28 26 26 28 27 25 25 24 24 24 24 24 23 22 23 23 23 23 23 23 23 23 22 21 20 19 19 20 19 19 18 16 16 16 16 17 18 17 16 16 15 14 14 14 14 14 15 16 16 15 15 15 15 14 15 16 16 15 15
18 18 16 15 16 15 11 9 10 13 18 20 18 18 19 22 24 25 28 30 32 34 34 34 33 31 29 28 28 29 28 26 25 25 25 25 24 25 25 24 23 23 24 24 24 25 26 26 24 22 21 20 19 19 20 20 19 18 17 17 16 16 17 17 17 16 16 16 16 16 15 15 16 16 17 16 16 16 16 16 16 16 17 17 18
19 20 20 19 19 18 16 13 12 13 15 14 13 14 16 18 20 24 27 29 31 32 32 32 32 31 30 29 29 30 30 28 27 26 25 25 24 25 26 26 25 24 24 24 25 26 27 28 28 26 23 21 20 20 20 20 20 20 19 19 18 17 17 17 17 17 17 17 16 16 16 16 16 16 16 16 16 16 16 17 17 17 17 18 18
20 21 22 22 21 20 18 18 16 14 14 15 16 15 15 16 18 22 25 27 28 29 28 27 28 28 28 28 29 30 31 30 30 29 27 26 26 25 26 27 27 27 26 26 25 26 27 28 29 28 25 23 21 21 20 20 21 21 21 21 21 20 19 18 18 18 18 18 18 18 18 17 17 17 17 17 17 17 17 17 16 15 15 16 16
19 21 22 21 21 21 20 18 17 15 13 14 16 16 15 18 19 19 20 20 20 21 22 23 24 25 25 25 26 28 30 32 32 32 30 29 28 27 27 28 29 29 29 28 27 27 28 29 29 28 27 25 24 22 21 20 20 20 21 22 23 23 22 22 21 21 21 21 20 20 20 19 19 19 19 19 19 17 16 15 14 13 13 15 16
19 21 22 22 21 20 19 19 17 15 14 13 12 10 9 13 16 16 15 15 15 16 16 17 18 19 21 22 23 24 26 29 30 31 31 30 29 28 28 28 29 30 30 30 29 28 29 30 31 30 28 27 25 23 21 20 19 18 18 20 21 22 23 24 24 24 23 22 22 21 21 21 21 21 20 20 19 18 16 15 14 14 15 17 19
21 21 22 22 22 20 18 18 17 16 14 14 12 8 6 6 7 10 12 14 14 15 14 14 14 15 16 19 21 21 22 23 24 25 27 27 28 29 29 29 30 30 30 30 30 31 30 30 31 33 32 30 27 24 22 21 20 19 19 19 19 20 21 23 24 25 26 25 24 23 23 23 22 22 22 21 20 20 19 18 18 18 20 21 22
21 21 21 20 20 20 19 18 18 17 15 14 13 11 9 7 5 3 5 10 13 13 14 14 14 13 14 15 16 16 17 18 18 19 20 22 25 27 29 31 32 31 31 31 30 31 31 31 32 33 34 33 31 28 26 24 22 21 21 21 21 21 21 20 21 22 24 25 25 25 25 25 24 24 24 23 23 22 21 21 21 22 23 23 24
20 19 19 18 18 19 19 18 18 18 16 15 15 15 15 12 9 6 4 4 7 10 12 14 13 13 13 13 12 12 13 14 15 15 16 18 21 25 28 31 32 32 32 31 30 30 31 31 32 34 35 34 33 31 29 28 26 24 21 22 24 24 23 22 21 20 20 20 21 22 23 23 23 24 24 24 24 24 24 24 25 25 25 25 25
20 19 18 17 16 16 18 19 18 16 16 16 16 17 18 17 14 12 10 7 4 3 6 9 9 10 11 11 11 11 11 11 13 15 16 18 21 23 26 28 31 33 33 32 30 30 32 32 31 33 35 35 34 32 31 29 29 27 25 24 25 26 26 26 25 24 22 22 21 21 23 23 22 22 22 23 24 24 25 26 27 28 28 28 28
19 19 19 18 16 13 14 17 18 16 15 15 14 15 17 18 17 16 15 14 12 9 7 5 5 6 7 7 7 8 9 10 12 14 16 18 20 22 23 25 27 29 31 31 30 30 33 33 31 30 31 33 32 32 31 30 29 29 29 28 28 28 28 28 28 28 27 27 26 26 26 26 25 24 23 22 22 23 24 25 26 27 28 29 30
17 19 19 19 18 15 14 15 16 15 14 14 12 12 13 15 16 16 16 15 15 14 13 10 6 2 1 3 4 4 6 8 11 13 14 15 16 17 18 21 22 23 25 26 28 29 31 33 33 31 30 29 28 29 29 29 29 29 29 29 29 29 29 29 29 29 30 31 31 31 31 30 30 29 26 24 23 23 24 26 27 28 29 30 31
15 17 18 19 19 19 17 14 14 14 13 11 10 10 10 11 12 13 14 14 14 14 14 13 12 9 5 2 3 5 5 6 9 11 11 12 14 15 15 16 17 19 20 22 25 27 28 30 33 34 33 31 29 28 28 28 29 29 28 28 27 27 28 28 28 29 30 31 32 32 33 34 34 32 30 29 27 26 27 28 29 30 31 33 34
13 13 15 17 16 16 16 13 11 11 9 8 8 9 9 8 9 10 11 12 13 12 12 12 12 11 9 7 4 2 1 2 4 6 6 7 12 14 14 14 14 14 15 18 21 23 25 27 29 32 34 34 33 32 31 30 30 29 29 28 28 29 30 31 32 32 33 33 33 33 33 34 34 33 33 32 32 31 32 32 32 32 33 35 35
12 10 10 12 10 10 11 11 10 8 6 6 7 8 8 7 7 7 9 10 10 9 9 9 10 10 9 7 7 6 5 4 4 4 5 4 7 10 11 12 13 12 13 14 16 18 21 23 25 28 31 33 35 36 36 35 35 34 33 33 33 34 36 37 38 38 38 38 39 39 39 38 37 36 36 35 35 36 36 36 35 35 36 37 36
10 8 6 6 6 6 7 8 7 5 4 5 6 8 8 7 6 7 7 7 7 6 5 5 5 7 7 6 5 5 5 5 6 7 8 8 6 6 8 10 11 12 13 14 14 15 17 19 21 24 27 30 32 35 36 36 36 36 36 36 37 38 39 40 40 40 39 40 40 41 42 42 39 37 37 38 38 38 39 39 39 38 38 37 37
7 4 3 2 1 2 3 4 4 4 5 5 6 7 6 6 6 6 7 6 5 5 4 4 2 2 5 5 3 4 5 5 5 6 7 8 8 7 6 7 9 10 12 14 14 15 15 16 17 19 22 25 27 29 30 31 31 32 33 34 37 38 38 37 37 38 38 37 37 38 38 37 35 34 33 35 38 39 39 40 41 40 38 37 37
5 3 4 4 4 5 6 6 5 5 6 7 6 5 5 6 6 7 7 7 6 6 6 6 7 7 7 8 6 5 5 5 5 6 6 6 6 6 5 6 7 8 9 10 11 13 15 15 16 17 19 21 22 23 24 24 25 26 29 31 34 35 36 35 35 35 35 34 35 35 36 35 34 33 32 32 34 37 38 38 38 37 36 34 34
4 5 7 9 9 10 10 10 9 8 8 8 8 7 6 6 7 8 9 9 8 8 7 8 9 9 10 10 9 8 6 4 4 6 5 4 4 4 5 6 7 9 8 6 6 9 11 13 14 16 18 19 20 21 21 21 22 23 25 28 31 32 32 33 33 33 33 33 34 35 35 35 34 34 34 33 33 34 35 36 35 33 31 30 30
4 6 8 10 11 12 13 12 12 11 9 9 10 9 9 9 9 9 11 11 11 10 9 9 9 9 10 10 9 7 5 2 2 3 3 3 3 4 4 5 6 7 7 5 5 6 8 8 10 12 15 17 18 18 18 18 19 21 23 25 28 29 30 31 32 33 33 34 35 35 34 33 32 32 33 34 33 33 34 34 33 31 29 28 28
3 5 8 10 10 11 12 12 12 11 9 8 8 8 9 10 11 11 12 13 13 12 12 11 10 9 9 9 9 7 4 2 2 1 1 1 2 3 3 3 3 3 4 5 6 7 9 9 9 8 9 12 14 15 14 13 14 17 18 20 23 25 26 28 30 31 32 32 32 32 30 29 29 28 29 31 32 33 33 34 33 31 29 29 29
2 4 6 9 10 11 12 12 11 9 7 6 5 5 6 8 10 12 12 13 13 13 13 12 11 9 8 8 9 9 7 6 5 4 4 3 2 2 4 3 3 3 4 6 7 9 11 13 14 13 11 11 13 14 14 12 9 11 14 16 17 18 20 23 25 26 27 28 28 29 29 28 27 26 27 28 31 32 34 34 33 31 31 31 31
1 3 5 7 9 11 11 9 7 5 5 5 5 5 6 8 9 10 11 12 12 13 13 13 12 11 10 9 9 9 9 9 9 8 7 6 5 5 6 5 4 6 8 9 11 12 14 16 16 15 13 12 14 15 13 11 10 12 14 16 16 17 17 19 21 22 23 24 25 27 28 27 26 26 27 27 29 31 33 34 34 34 34 35 35
2 3 5 6 8 9 8 5 5 6 7 7 8 8 8 10 10 10 11 12 13 13 14 14 13 13 12 11 11 11 11 12 11 11 10 9 9 9 10 10 9 10 12 14 15 16 17 17 15 13 11 12 12 12 12 14 15 15 14 15 16 17 17 18 19 21 22 23 24 26 27 27 27 27 27 28 28 28 29 31 32 33 35 36 36
3 3 4 6 7 8 6 5 7 9 10 11 12 12 12 12 12 12 11 12 13 13 13 13 13 14 14 14 14 13 13 13 14 14 14 13 13 13 13 13 14 14 15 15 15 15 14 14 14 13 13 14 13 11 11 13 14 14 13 13 15 16 17 18 18 19 21 22 23 24 25 26 27 28 27 28 27 25 24 25 26 27 28 29 30
3 4 5 5 6 6 7 7 9 12 13 13 12 10 9 9 9 9 10 10 12 13 13 12 13 14 15 16 16 16 15 15 15 16 17 17 17 17 16 15 14 14 14 13 14 14 13 14 15 17 17 15 13 12 12 12 11 12 13 14 15 16 17 17 17 18 19 21 22 22 23 24 26 27 29 29 27 24 23 23 24 25 25 26 27
Wind_Direction
175 172 176 179 178 178 173 172 174 176 183 186 186 189 191 183 182 184 177 179 181 173 169 167 164 165 167 175 177 172 174 170 165 163 164 164 164 168 165 164 162 159 160 162 166 168 170 173 172 170 168 170 172 174 176 172 171 178 175 165 162 163 167 180 191 190 189 192 213 227 205 202 204 210 225 240 252 262 273 286 309 44 57 78 89
169 167 171 175 175 176 174 174 176 178 183 186 188 191 194 189 187 189 184 185 186 180 178 173 171 167 163 171 178 178 185 191 187 175 173 178 174 174 173 172 170 169 168 169 170 171 172 170 170 172 169 171 179 181 181 179 178 181 177 171 169 169 174 182 185 182 187 196 200 186 185 191 201 210 221 232 244 250 251 251 222 97 63 76 96
171 168 169 173 174 176 176 177 179 180 182 187 192 195 197 197 194 194 190 186 186 186 184 177 174 170 163 168 177 182 191 203 205 193 191 200 193 185 183 182 183 183 181 179 177 177 178 175 176 182 178 178 184 185 187 189 187 186 181 177 174 175 180 183 185 191 197 193 181 180 194 210 219 220 218 218 221 226 231 227 201 171 76 78 97
172 172 172 173 174 177 178 179 180 181 183 186 192 196 200 201 198 195 192 188 188 187 185 179 174 171 167 171 179 186 193 206 212 204 199 203 203 201 195 191 193 192 191 190 187 187 188 186 187 192 188 182 186 186 189 193 193 192 188 183 180 178 178 180 185 194 196 190 187 197 226 249 256 247 231 222 208 209 217 217 197 177 119 83 96
174 174 173 175 175 178 179 181 182 183 184 188 193 199 203 202 198 195 193 190 189 186 181 178 174 171 172 175 184 191 195 204 208 201 198 199 202 204 203 202 199 198 201 204 201 198 197 194 192 196 195 188 188 188 188 193 195 194 194 191 188 187 185 190 199 198 194 199 212 224 246 260 268 273 260 251 233 219 219 223 218 187 172 67 78
176 176 175 177 177 178 180 182 185 186 187 191 197 202 203 201 200 199 197 193 190 185 180 179 175 174 178 180 186 193 195 200 203 199 194 199 203 203 205 204 201 202 203 205 205 202 201 200 195 196 198 195 193 193 192 195 198 198 198 196 192 194 197 203 213 209 202 213 228 236 255 266 272 295 270 246 238 244 235 229 227 203 189 303 17
175 178 178 179 179 180 182 183 187 189 190 194 198 202 202 202 202 204 204 197 190 184 182 181 178 177 183 186 189 195 196 197 202 202 198 202 205 203 206 202 199 204 205 206 208 204 204 204 200 197 198 198 198 200 200 200 201 201 198 196 191 194 207 217 222 218 209 213 220 222 237 243 245 327 288 230 218 235 231 226 226 210 193 343 332
178 177 178 180 181 183 184 185 189 191 191 195 198 202 204 204 205 208 209 200 191 186 185 184 182 181 186 192 195 199 201 200 202 205 207 210 207 202 205 202 199 203 204 207 207 204 205 204 202 201 200 201 202 206 206 203 205 203 198 197 195 198 215 225 226 221 212 213 217 215 220 220 231 316 331 352 109 151 205 218 219 212 211 238 271
186 178 179 183 183 185 188 188 190 193 194 197 200 202 206 208 208 210 210 201 194 190 189 187 185 184 191 199 202 203 205 204 205 209 212 210 204 202 204 201 199 202 202 203 204 204 206 204 202 204 203 203 204 208 208 207 209 208 203 204 205 207 216 225 225 218 213 215 221 222 213 204 237 286 277 308 72 86 172 216 217 216 221 232 239
198 184 179 185 186 186 191 192 192 195 198 199 201 203 206 209 209 211 211 203 196 195 192 190 188 188 195 203 206 206 204 203 205 207 211 208 198 198 203 201 200 202 201 201 203 205 205 205 205 205 206 207 207 209 211 214 215 215 213 213 214 213 217 223 221 211 211 213 218 223 209 204 257 276 247 272 268 74 40 214 218 221 224 234 234
206 196 184 184 188 187 188 193 194 196 198 199 200 203 206 209 209 211 212 205 198 197 195 193 191 192 197 203 207 208 203 201 201 198 204 206 196 195 201 205 205 201 200 200 201 204 207 208 209 207 209 211 210 210 214 221 223 223 225 220 219 218 217 221 219 210 211 214 217 220 209 216 266 292 255 294 295 281 339 80 201 222 228 234 208
210 206 193 179 187 188 187 192 194 194 196 198 200 204 206 208 209 210 213 210 200 198 198 197 196 196 198 202 206 206 201 199 197 194 199 202 196 197 202 208 210 202 199 199 196 201 210 211 211 212 213 213 211 212 217 225 226 226 228 226 225 222 219 220 219 215 219 220 219 218 211 218 242 256 250 289 301 289 287 276 176 217 218 219 201
211 210 200 184 184 189 188 190 193 194 195 198 201 203 205 206 207 209 212 212 205 200 200 201 201 200 200 203 204 203 201 200 199 198 200 202 201 202 204 208 209 203 200 199 194 200 211 211 211 214 216 215 213 214 220 226 227 226 226 226 225 222 221 222 221 221 225 225 222 220 216 216 228 232 234 263 282 286 281 274 275 238 202 205 205
210 211 205 193 183 187 191 190 193 196 197 199 201 202 205 206 206 208 212 213 209 204 203 205 205 202 200 202 202 201 201 203 205 204 203 205 208 208 207 207 208 206 203 200 197 202 210 212 212 214 216 218 219 219 225 230 228 226 227 227 223 220 222 223 222 222 224 222 220 219 211 208 216 223 235 255 254 267 280 274 270 248 220 221 224
209 210 208 201 188 186 190 191 194 197 197 198 201 203 206 207 206 208 211 213 212 209 207 208 206 202 200 201 201 200 203 206 208 210 209 209 212 212 210 210 210 210 208 205 204 206 211 214 214 216 217 219 223 226 232 236 230 226 228 229 224 221 223 224 222 222 222 220 216 212 206 204 211 222 244 259 254 262 276 271 263 254 241 238 241
208 209 208 203 196 191 192 192 193 197 196 196 201 205 207 208 207 208 210 212 212 211 211 209 207 203 201 201 201 201 206 209 208 211 214 215 215 214 213 214 212 212 212 210 211 212 214 217 215 216 220 220 221 228 235 236 235 233 232 230 225 222 224 223 222 222 223 223 216 210 209 210 216 229 244 255 258 262 270 270 264 263 264 262 259
207 210 210 207 204 198 194 194 193 195 196 195 200 206 209 209 208 207 210 212 212 213 213 211 207 203 203 204 204 204 208 212 211 211 214 216 217 216 215 216 214 214 213 209 211 215 214 215 215 216 223 222 218 224 229 230 235 237 233 232 227 224 226 223 222 223 221 223 221 215 215 217 220 233 241 249 258 260 264 269 269 269 272 275 272
204 206 209 210 208 202 198 198 196 195 195 193 198 206 209 212 212 209 210 212 212 213 213 212 208 203 203 206 208 209 211 214 214 213 214 215 218 217 216 217 216 216 215 210 211 214 212 215 218 221 227 225 220 222 223 226 233 233 230 231 229 227 229 226 225 225 222 225 226 223 224 225 225 234 240 242 251 258 262 267 269 270 273 277 276
200 202 206 208 207 204 202 201 199 197 193 187 184 200 208 210 212 212 213 215 214 213 212 213 211 206 205 206 210 213 214 215 216 216 215 214 216 217 216 216 216 215 217 217 216 216 217 221 224 228 230 227 225 224 220 222 230 233 231 231 231 230 231 228 228 229 228 230 232 231 233 234 231 236 241 241 244 252 258 265 269 268 272 277 275
194 202 205 206 205 204 203 203 202 199 195 190 183 191 205 206 207 209 211 213 214 214 213 212 212 210 209 208 210 214 217 218 218 220 221 218 215 216 217 216 217 216 217 219 222 221 222 225 227 231 232 228 226 225 223 223 228 232 233 232 232 233 233 232 232 232 232 233 235 236 238 238 235 236 240 244 248 251 253 260 270 270 270 275 275
164 189 195 199 203 207 208 208 208 205 203 200 196 195 204 208 209 211 211 211 212 214 214 213 213 213 212 211 212 215 219 220 221 223 226 226 222 219 219 218 219 220 219 220 224 225 226 230 231 232 232 231 229 226 223 224 228 230 231 232 233 233 234 234 235 236 237 237 238 240 241 239 237 239 242 245 251 254 254 259 268 272 273 279 283
100 134 165 183 199 208 210 207 206 208 208 205 202 203 207 209 211 213 213 213 212 213 214 212 213 214 214 213 213 214 218 221 222 224 226 229 229 227 224 223 221 222 224 225 227 227 228 231 235 235 234 233 233 231 226 225 229 231 231 232 233 234 234 232 233 236 242 245 246 245 243 238 238 245 247 245 248 252 256 261 264 268 279 290 293
91 107 140 171 195 205 204 199 202 208 210 208 209 212 213 211 211 212 213 213 211 212 213 212 211 213 214 215 215 215 218 221 223 224 225 226 229 231 231 230 227 224 225 229 230 230 230 233 238 240 238 237 237 235 232 231 233 234 236 235 235 238 240 238 236 239 245 251 252 251 249 246 246 251 252 249 249 252 255 258 255 255 272 285 290
90 103 121 148 179 191 189 193 200 205 206 205 207 211 212 213 214 213 211 211 211 212 214 214 212 212 214 215 217 217 217 220 224 226 227 226 226 229 230 232 232 229 228 229 230 232 233 235 239 242 241 242 241 240 239 237 236 237 239 240 241 243 246 247 247 246 247 253 256 257 257 253 250 253 256 255 254 255 257 255 251 256 271 278 279
89 96 105 124 148 165 176 183 187 195 200 201 203 206 208 210 215 215 210 208 210 213 215 215 213 211 211 213 218 221 218 217 220 224 228 230 229 227 227 230 233 233 232 231 231 234 236 237 240 243 243 242 243 244 245 243 241 239 239 241 244 246 248 250 249 246 244 250 258 261 261 257 254 256 261 263 261 258 255 253 255 260 267 274 276
91 97 101 110 124 142 171 179 169 177 192 200 205 208 206 206 210 214 213 208 208 212 213 213 213 211 210 212 216 221 221 218 217 219 222 226 229 229 228 230 233 235 235 234 233 236 240 241 242 244 245 243 242 243 246 247 247 245 243 244 245 247 250 251 251 250 250 252 257 260 260 257 257 260 263 265 266 262 256 254 258 259 261 268 274
92 97 100 100 106 116 136 159 165 176 190 194 197 203 208 210 207 207 212 210 207 209 211 211 211 211 212 214 214 218 223 224 223 222 221 221 223 226 228 231 234 236 238 237 235 237 241 245 247 247 247 245 244 244 245 247 248 248 250 251 250 250 251 251 254 256 258 260 261 263 263 260 259 261 263 265 267 267 264 262 263 263 262 262 266
87 92 96 96 94 95 98 110 138 170 184 183 180 190 204 211 207 205 210 212 209 209 211 211 211 211 212 215 215 218 223 226 227 227 226 224 222 223 226 232 235 236 237 238 238 240 242 245 249 251 251 250 250 249 248 247 247 248 251 254 255 255 254 255 257 258 261 265 266 268 268 266 266 267 269 271 272 273 272 270 269 270 269 264 262
81 85 90 94 94 93 93 95 106 130 154 165 170 179 182 184 191 198 204 208 207 206 209 212 213 214 217 219 220 221 224 226 228 230 229 226 224 223 224 230 235 237 237 238 239 242 245 246 249 251 252 254 255 255 254 252 251 252 253 254 256 256 256 257 258 259 261 263 266 268 269 269 270 272 273 275 275 275 275 275 274 273 273 272 271
80 83 85 90 95 96 96 94 93 97 109 134 154 163 156 154 167 182 190 195 199 202 207 212 214 215 218 220 222 224 226 227 229 231 230 227 225 225 223 226 233 237 239 239 239 240 243 246 249 250 251 252 255 258 260 259 258 258 259 258 258 257 256 256 257 259 260 261 263 266 268 270 271 271 271 271 271 272 271 272 274 275 277 278 278
86 85 83 83 88 93 93 91 89 90 90 99 120 135 137 143 157 171 180 185 192 197 199 205 212 216 216 218 222 226 229 231 232 233 234 232 229 228 227 226 230 235 238 240 241 241 242 244 246 248 249 250 251 255 258 260 262 263 264 264 263 262 260 258 257 257 258 260 262 264 267 269 269 270 270 269 269 269 267 264 264 269 275 277 278
92 87 82 79 80 85 89 86 83 85 87 86 91 100 103 112 137 162 172 176 185 193 192 196 206 215 219 221 223 225 227 230 232 233 234 235 234 234 234 233 234 236 238 239 242 243 243 243 243 244 246 248 250 252 255 257 260 263 265 267 268 268 267 264 261 259 259 260 261 263 266 267 269 271 273 273 273 272 270 268 266 269 273 276 277
94 90 85 82 77 76 82 88 87 85 84 80 77 76 75 75 81 109 147 161 173 180 178 179 189 200 211 216 217 218 219 223 229 230 230 231 232 236 238 239 240 240 238 237 241 243 243 243 242 242 243 246 248 251 254 255 258 261 264 265 266 268 270 271 270 267 264 263 264 266 267 268 270 272 273 274 274 273 272 271 271 272 272 273 274
96 92 87 85 82 75 75 83 90 89 84 80 75 70 66 71 82 81 79 135 173 176 165 161 167 178 186 189 192 200 209 217 224 228 227 227 229 233 236 238 240 240 238 240 243 241 237 238 240 241 243 245 246 250 254 256 258 260 262 264 266 267 269 272 274 274 272 269 269 270 271 272 273 273 273 273 273 273 273 271 270 270 269 268 270
92 92 89 85 80 77 75 77 85 91 88 83 78 75 70 69 74 78 76 81 105 153 166 171 180 183 180 175 180 192 202 213 222 227 229 229 228 229 232 234 236 236 238 243 245 239 232 232 235 238 241 243 245 248 252 254 256 257 258 261 263 264 267 270 272 274 274 274 273 273 273 275 276 276 275 274 273 272 271 271 270 270 269 268 268
84 85 92 89 81 79 78 74 75 82 88 86 79 75 74 70 69 72 75 79 81 85 99 132 177 197 196 191 196 204 207 219 232 233 231 230 229 230 231 232 235 236 238 240 239 236 231 229 231 235 237 240 242 245 248 248 248 249 250 252 255 258 260 264 267 269 270 272 273 273 274 274 275 276 277 277 277 276 273 271 270 270 271 270 269
85 84 91 90 84 84 85 77 72 72 77 81 77 71 72 72 68 68 72 76 79 81 81 79 79 88 221 242 260 251 226 229 242 242 235 232 234 238 239 238 239 240 241 240 238 236 233 231 232 234 234 235 236 239 242 244 244 244 244 245 247 249 252 256 260 263 264 266 268 269 270 271 272 273 274 275 276 275 274 274 273 273 274 273 274
99 91 90 88 85 86 87 82 73 67 65 63 59 57 61 66 65 63 65 71 76 79 80 78 76 71 62 33 322 299 273 254 256 256 250 243 242 246 251 251 249 246 244 244 242 241 239 238 237 236 236 237 238 236 236 238 239 240 240 241 243 246 250 253 257 260 262 264 265 265 265 266 266 268 269 271 272 271 271 272 273 275 276 276 278
114 103 91 87 88 89 89 83 74 64 53 44 42 41 44 52 55 53 56 62 69 77 85 87 85 83 86 92 90 64 347 291 278 277 276 258 247 249 257 262 261 258 254 251 248 246 244 244 242 241 239 240 243 243 241 240 240 240 240 241 245 249 254 257 260 263 264 265 266 266 265 264 264 265 265 267 268 269 269 270 272 273 274 277 280
123 117 101 94 95 94 86 75 65 52 32 16 15 18 23 32 35 34 41 51 59 70 85 93 89 83 84 96 104 102 94 70 37 13 2 328 270 256 261 265 264 264 264 262 259 255 251 248 247 246 244 243 244 246 246 246 248 249 250 251 252 255 258 262 265 267 267 267 267 267 267 267 267 267 266 265 265 266 268 270 271 270 272 277 282
126 126 118 105 94 86 77 66 55 34 359 345 344 347 355 4 7 9 18 28 35 42 57 81 97 87 73 73 88 88 80 69 55 42 30 18 350 300 279 276 274 271 268 267 268 266 263 258 254 251 250 249 249 249 249 251 253 256 257 257 258 260 262 265 267 269 269 268 268 268 268 268 269 270 267 264 263 263 264 267 269 270 273 278 282
141 151 166 160 108 45 42 32 20 350 330 329 336 336 333 333 336 342 348 351 356 358 355 349 347 26 30 25 34 45 43 43 38 28 27 25 14 351 322 308 303 295 285 277 274 272 270 267 263 259 256 255 255 255 256 257 258 259 259 258 257 259 261 263 265 266 267 268 269 270 271 270 271 273 270 266 263 261 260 261 264 268 272 276 279
174 228 262 274 287 299 312 317 318 318 314 315 324 328 316 305 306 312 314 314 316 314 310 316 316 319 332 341 345 358 11 16 6 356 1 17 19 12 4 354 345 336 316 293 281 276 273 269 266 262 259 257 257 257 259 261 262 262 260 258 256 256 257 259 260 262 264 268 270 272 273 272 273 276 275 271 266 260 257 257 259 263 268 272 273
198 238 261 275 284 293 301 299 292 293 295 297 301 303 301 297 294 293 293 292 295 297 295 297 300 304 314 322 328 341 357 3 340 331 350 24 33 27 25 21 11 2 352 332 300 288 284 276 267 261 259 259 259 257 256 257 259 261 261 260 259 258 258 259 260 262 264 269 272 274 275 274 274 274 273 272 267 260 256 255 255 258 263 266 265
232 248 259 269 276 285 295 295 289 288 287 285 284 282 283 289 292 291 289 288 289 292 292 292 295 299 304 307 311 325 347 4 339 338 7 34 30 18 15 15 9 1 357 352 332 318 312 295 275 262 256 256 259 261 260 260 259 260 262 263 262 262 262 262 263 263 265 268 271 274 275 274 273 271 268 266 262 257 256 256 255 255 258 260 261
258 272 283 292 294 293 293 291 291 295 299 297 292 287 284 283 285 287 288 288 290 291 291 292 293 295 296 296 296 298 293 261 220 165 77 1 349 344 337 346 356 351 348 347 338 334 330 319 308 292 264 250 252 255 256 259 264 267 269 269 268 266 264 262 262 263 264 266 269 272 274 273 271 270 267 263 258 254 254 255 255 256 258 260 262
273 293 303 310 314 313 308 304 301 305 313 312 303 299 292 282 279 282 283 284 289 291 290 291 293 294 291 286 284 283 276 263 242 214 205 221 262 300 302 304 305 302 311 320 318 316 318 316 315 313 299 281 274 265 249 241 258 281 281 276 276 278 274 269 267 266 266 266 268 269 270 269 268 269 269 265 260 256 254 255 256 256 258 259 262
263 298 305 311 318 322 322 320 312 305 305 294 279 278 282 280 280 283 284 285 287 288 287 288 291 294 293 286 281 278 275 270 260 244 234 237 246 258 262 264 280 297 303 305 303 302 304 304 304 306 304 300 297 289 271 259 276 297 293 282 282 286 283 277 274 272 271 271 270 270 271 272 272 272 271 269 265 261 259 259 258 258 258 260 263
238 278 291 303 315 318 314 298 276 276 279 275 270 270 274 278 282 286 288 289 290 289 290 291 290 291 293 291 285 279 276 274 270 260 251 249 253 262 263 254 255 273 288 294 294 294 294 293 291 293 300 302 301 300 291 283 288 296 296 288 284 283 282 282 281 280 279 278 278 279 280 282 282 279 274 272 270 267 265 265 265 265 265 267 269
221 259 287 306 311 306 289 262 261 273 278 280 282 283 283 285 289 293 293 293 295 297 298 297 295 292 291 292 290 286 281 278 275 270 264 256 250 253 260 261 259 263 269 274 277 280 283 283 281 284 292 296 296 298 295 288 287 292 291 285 282 281 282 284 285 285 284 283 283 284 284 285 285 283 277 271 268 267 266 267 267 268 268 269 271
239 276 300 308 299 285 271 266 273 282 287 293 297 299 298 296 298 300 298 293 293 298 301 301 299 295 293 293 295 294 292 287 282 278 276 272 264 257 256 258 261 263 264 265 266 268 268 270 275 281 287 288 288 293 295 290 288 290 288 283 281 281 283 285 286 286 286 286 287 288 286 286 285 283 278 274 270 269 269 268 267 267 268 270 272